User: anonymous   Login
Location: Unspecified
(0.0000°N, 0.0000°E)
Time: 11:33:31
(UTC+00:00)
Language:

UNISAT 5 - Orbit

View from above orbital plane
View from above orbital plane
View from above satellite
View from above satellite

Ground track
Ground track

The orbit data is extracted from the following two-line orbital elements,

1 39421U 13066F   17329.16584526  .00000261  00000-0  34409-4 0  9997
2 39421  97.6233  20.1427 0032523  67.1652 293.2994 14.87471040217586
Epoch (UTC): 25 November 2017 03:58:49
Eccentricity: 0.0032523
inclination: 97.6233°
perigee height: 583 km
apogee height: 628 km
right ascension of ascending node: 20.1427°
argument of perigee: 67.1652°
revolutions per day: 14.87471040
mean anomaly at epoch: 293.2994°
orbit number at epoch: 21758

The dashed part of the orbit path shows where the satellite is in the earth's shadow,  

DLR